    Observer details:
    118 Modra.  Observers S. Gajdos, J. Vilagi.  0.6-m f/5.5 reflector + CCD.
    349 Ageo.  Observer K. Kadota.  0.25-m f/5.0 reflector + CCD.
    372 Geisei.  Observer T. Seki.  0.60-m f/3.5 reflector.
    415 Kambah, near Canberra.  Observer D. Herald.  0.36-m f/3.9
        Schmidt-Cassegrain + CCD.
    585 Kiev comet station.  Observer A. Baransky.  0.7-m f/4 reflector + CCD.
    673 Table Mountain Observatory, Wrightwood.  Observer J. Young.  0.61-m f/16
        Cassegrain + CCD.
    703 Catalina Sky Survey.  Observer E. J. Christensen.  Measurers E. C. Beshore,
        E. J. Christensen, A. R. Gibbs, A. D. Grauer, R. E. Hill,
        R. A. Kowalski, S. M. Larson.  0.68-m Schmidt + CCD.
    704 Lincoln Laboratory ETS, New Mexico.  Observers M. Bezpalko, L. Manguso,
        D. Torres, R. Kracke, H. Love, G. Spitz, J. Kistler.  Measurers J. Stuart,
        J. Kommers.  1.0-m f/2.15 reflector + CCD.
    850 Cordell-Lorenz Observatory, Sewanee.  Observers D. T. Durig, C. C. Grigsby.
        0.30-m f/5 Schmidt-Cassegrain + CCD, 0.30-m f/9.7 Schmidt-Cassegrain + CCD.
    941 Observatorio Pla D'Arguines.  Observers R. Ferrando, M. Ferrando.
        Measurer R. Ferrando.  0.36-m f/10 Schmidt-Cassegrain + CCD.
    A11 Wormhout.  Observer S. Takbou.  0.20-m f/10 Schmidt-Cassegrain + CCD.
    A41 Rezman Observatory, Kamnik.  Observer R. Palcic.  0.40-m f/3.6 reflector
        + CCD.
    D35 Lulin Observatory.  Observers H.-C. Lin, C.-S. Lin, Q.-z. Ye.  Measurer
        Q.-z. Ye.  0.41-m f/8.8 Ritchey-Chretien + CCD.
    H06 RAS Observatory, Mayhill.  Observers E. Guido, G. Sostero, R. Hutsebaut,
        M. Suzuki.  0.25-m f/3.4 reflector + CCD.
    J70 Obs. Astronomico Vega del Thader, El Palmar.  Observer J. P. Navarro P.
        0.20-m Schmidt-Cassegrain + CCD.
    J95 Great Shefford.  Observer P. Birtwhistle.  0.40-m f/6.0 Schmidt-Cassegrain
        + CCD.
    
    Orbital elements:
        P/2006 U1 (LINEAR)
    T 2006 Aug. 28.514 TT                                   MPC
    q   0.51126              (2000.0)            P               Q
    n   0.214264       Peri.   64.072       +0.560921       +0.817990
    a   2.76590        Node   240.633       -0.802242       +0.499043
    e   0.81515        Incl.    8.414       -0.204391       +0.286092
    P   4.60
    From 174 observations 2006 Oct. 19-28.
    
    Ephemeris:
        P/2006 U1 (LINEAR)
    Date    TT    R. A. (2000) Decl.     Delta      r     Elong.  Phase   m1    m2
    2006 10 22    07 13.72   +27 22.0    0.409    1.152   101.9    57.7   8.7
    2006 10 27    06 47.30   +26 41.5    0.424    1.222   112.7    48.6   9.0
    2006 11 01    06 21.38   +25 48.2    0.443    1.291   123.5    39.9   9.3
    2006 11 06    05 56.43   +24 44.2    0.467    1.359   134.1    31.6   9.7
    2006 11 11    05 32.97   +23 32.8    0.498    1.425   144.5    23.8  10.0
    2006 11 16    05 11.53   +22 18.2    0.535    1.490   154.6    16.6  10.4
    2006 11 21    04 52.48   +21 04.8    0.580    1.554   164.1    10.0  10.7
    2006 11 26    04 36.04   +19 56.1    0.633    1.617   172.9     4.3  11.1
    2006 12 01    04 22.21   +18 54.8    0.693    1.678   176.9     1.8  11.5
    
    Brian G. Marsden             (C) Copyright 2006 MPC           M.P.E.C. 2006-U66
    

    Read MPEC 2006-U65 Read MPEC 2006-U67


    MPEC number:

    Enter an MPEC number in one of the following forms:

    • 1997-B01 (the full form)
    • J97B01 (the packed version of the full form)
    • B01 (the abbreviated form)